Location: Lake Zurich
(42.1970°N, 88.0930°W)
Time: 23:07:48
(UTC-06:00)

Amateur Radio Satellites - All Passes

Search period start: 22 February 2017 22:37
Search period end: 23 February 2017 22:37
Location: Lake Zurich, 42.1970°N, 88.0930°W

Satellite Date Start Highest point End Downlink Frequencies (MHz)
Time Altitude Azimuth
SO-50 22 Feb 22:42:26 22:47:07 75° 121° (ESE) 22:51:45 436.795
ESTCUBE 1 22 Feb 22:45:11 22:49:41 66° 259° (WSW) 22:54:11 437.505/2401.250
50 SAT 22 Feb 22:59:59 23:03:15 36° 72° (ENE) 23:06:29 437.505
DUCHIFAT 1 22 Feb 23:03:39 23:07:13 25° 95° (E) 23:10:45 145.980
EO-79 22 Feb 23:10:41 23:14:40 36° 98° (E) 23:18:37 145.935-145.965
UNISAT 6 22 Feb 23:12:00 23:15:39 23° 294° (WNW) 23:19:16 437.425
TIGRISAT 22 Feb 23:13:10 23:16:53 23° 294° (WNW) 23:20:34 435.000
VELOX 1 22 Feb 23:23:15 23:27:37 76° 257° (WSW) 23:32:02 145.980
RS-15 22 Feb 23:24:01 23:34:04 27° 16° (NNE) 23:43:56 29.354- 29.394
DX 1 22 Feb 23:24:34 23:28:45 50° 72° (ENE) 23:32:57 434.975-435.025
POLYITAN 1 22 Feb 23:27:06 23:31:21 56° 100° (E) 23:35:33 437.675
AIST 2D 22 Feb 23:29:01 23:32:35 70° 284° (WNW) 23:36:07 435.315
NANOSAT C BR1 22 Feb 23:29:23 23:33:36 54° 100° (E) 23:37:47 145.865
QB50P2 22 Feb 23:29:55 23:34:12 65° 101° (E) 23:38:27 145.880/145.840
PCSat 22 Feb 23:33:20 23:35:16 12° 34° (NE) 23:37:13 145.827
O/OREOS (USA 219) 22 Feb 23:34:32 23:38:52 49° 297° (WNW) 23:43:15 437.305
UKube-1 22 Feb 23:42:27 23:46:39 56° 73° (ENE) 23:50:53 .
FO-29 22 Feb 23:42:32 23:49:48 45° 294° (WNW) 23:56:32 435.910
SPROUT 22 Feb 23:53:19 23:57:22 43° 261° (W) 00:01:28 437.525
BUGSAT 1 23 Feb 00:12:02 00:16:10 50° 100° (E) 00:20:18 437.445
ITUPSAT 1 23 Feb 00:17:15 00:18:29 11° 58° (ENE) 00:19:44 437.325
BEESAT 23 Feb 00:24:39 00:26:54 13° 60° (ENE) 00:29:09 436.000
SO-50 23 Feb 00:24:55 00:28:05 18° 320° (NW) 00:31:15 436.795
50 SAT 23 Feb 00:34:50 00:36:31 13° 268° (W) 00:38:14 437.505
Oscar 19 23 Feb 00:34:57 00:39:12 26° 95° (E) 00:43:26 437.125/150
DUCHIFAT 1 23 Feb 00:39:10 00:42:50 28° 291° (WNW) 00:46:29 145.980
EO-79 23 Feb 00:46:59 00:50:11 21° 294° (WNW) 00:53:23 145.935-145.965
Gurwin Techsat 1B 23 Feb 00:57:17 01:01:33 24° 94° (E) 01:05:47 435.225
DX 1 23 Feb 01:02:44 01:05:13 15° 268° (W) 01:07:41 434.975-435.025
POLYITAN 1 23 Feb 01:04:20 01:06:40 14° 297° (WNW) 01:09:00 437.675
NANOSAT C BR1 23 Feb 01:06:29 01:08:51 15° 297° (WNW) 01:11:14 145.865
QB50P2 23 Feb 01:07:35 01:09:27 13° 298° (WNW) 01:11:18 145.880/145.840
MOZHAYETS 4 23 Feb 01:10:37 01:12:38 13° 61° (ENE) 01:14:38
PCSat 23 Feb 01:14:36 01:19:56 54° 56° (NE) 01:25:15 145.827
UKube-1 23 Feb 01:21:00 01:23:02 13° 269° (W) 01:25:04 .
RS-15 23 Feb 01:37:54 01:50:06 58° 47° (NE) 02:01:47 29.354- 29.394
BUGSAT 1 23 Feb 01:48:37 01:51:07 15° 296° (WNW) 01:53:37 437.445
ITUPSAT 1 23 Feb 01:50:43 01:55:32 87° 76° (ENE) 02:00:23 437.325
BEESAT 23 Feb 01:59:16 02:04:02 77° 257° (WSW) 02:08:52 436.000
KKS-1 23 Feb 02:02:26 02:03:45 11° 60° (ENE) 02:05:05 437.445
Oscar 19 23 Feb 02:13:53 02:18:36 39° 291° (WNW) 02:23:19 437.125/150
Gurwin Techsat 1B 23 Feb 02:36:37 02:41:40 45° 291° (WNW) 02:46:41 435.225
ITAMSAT 1 23 Feb 02:41:18 02:46:13 39° 98° (E) 02:51:05 435.822/435.867
STARS 23 Feb 02:43:14 02:45:24 14° 62° (ENE) 02:47:34 437.465
MOZHAYETS 4 23 Feb 02:44:31 02:49:09 76° 258° (WSW) 02:53:50
AO-7 23 Feb 02:53:19 03:01:03 40° 99° (E) 03:08:41 .
PCSat 23 Feb 02:58:50 03:02:55 22° 253° (WSW) 03:07:00 145.827
KKS-1 23 Feb 03:35:14 03:39:40 80° 258° (WSW) 03:44:07 437.445
CUBESAT XI-V 23 Feb 03:36:37 03:41:13 61° 74° (ENE) 03:45:49 437.345
RS-15 23 Feb 03:50:59 04:02:25 49° 251° (WSW) 04:13:25 29.354- 29.394
M-CUBED/EXP-1 PRIME 23 Feb 04:03:23 04:06:42 88° 56° (ENE) 04:09:58 437.505
STARS 23 Feb 04:16:54 04:21:12 63° 258° (WSW) 04:25:34 437.465
ITAMSAT 1 23 Feb 04:21:08 04:25:29 27° 295° (WNW) 04:29:49 435.822/435.867
AO-85 23 Feb 04:25:20 04:29:48 52° 119° (ESE) 04:33:58 145.980
AO-7 23 Feb 04:46:02 04:53:53 48° 298° (WNW) 05:01:42 .
CUTE-I 23 Feb 05:10:20 05:14:08 19° 92° (E) 05:17:56 437.470
CUBESAT XI-V 23 Feb 05:16:35 05:18:59 14° 270° (W) 05:21:23 437.345
KAITUO 1B 23 Feb 05:20:53 05:23:27 17° 93° (E) 05:26:00 145.475/437.950
XW-2F 23 Feb 05:20:57 05:23:53 21° 94° (E) 05:26:47 145.980 - 146.000
DOVE 4 23 Feb 05:23:11 05:27:18 30° 96° (E) 05:31:37 437.250
XW-2D 23 Feb 05:23:48 05:26:57 24° 95° (E) 05:30:04 145.860 - 145.880
XW-2B 23 Feb 05:28:41 05:31:57 26° 95° (E) 05:35:12 145.730 - 145.750
BEESAT 3 23 Feb 05:32:59 05:34:57 14° 109° (ESE) 05:36:57 437.485
SO-50 23 Feb 05:34:30 05:36:38 13° 35° (NE) 05:38:46 436.795
XW-2C 23 Feb 05:37:02 05:40:33 33° 97° (E) 05:44:01 145.795 - 145.815
LilacSat-2 23 Feb 05:50:53 05:54:41 52° 100° (E) 05:58:24 437.200
NUDT-PHONESAT 23 Feb 05:58:09 06:01:50 49° 99° (E) 06:05:28 437.300
BEESAT 2 23 Feb 06:05:44 06:07:29 13° 109° (ESE) 06:09:15 435.950
AO-85 23 Feb 06:07:07 06:10:26 20° 315° (NW) 06:13:36 145.980
STRAND 1 23 Feb 06:13:07 06:18:13 70° 73° (ENE) 06:23:22 437.568
HO-68 23 Feb 06:14:51 06:19:42 19° 91° (E) 06:24:31 435.675
XW-2A 23 Feb 06:19:28 06:21:33 15° 93° (E) 06:23:38 145.665 - 145.685
AO-7 23 Feb 06:42:11 06:44:37 12° 320° (NW) 06:47:03 .
CUTE-I 23 Feb 06:49:15 06:54:31 56° 289° (WNW) 06:59:45 437.470
CUBEBUG 2 23 Feb 06:52:40 06:55:19 15° 90° (E) 06:57:58 437.445
KAITUO 1B 23 Feb 06:54:10 06:57:34 31° 289° (WNW) 07:00:54 145.475/437.950
XW-2F 23 Feb 06:54:46 06:58:02 27° 290° (WNW) 07:01:15 145.980 - 146.000
XW-2D 23 Feb 06:57:57 07:01:04 24° 291° (WNW) 07:04:09 145.860 - 145.880
CUTE 1.7 + AOD 2 23 Feb 06:59:48 07:03:39 33° 97° (E) 07:07:27 437.475
DOVE 4 23 Feb 07:00:55 07:04:55 29° 291° (WNW) 07:09:06 437.250
XW-2B 23 Feb 07:03:02 07:06:02 22° 292° (WNW) 07:09:00 145.730 - 145.750
BEESAT 3 23 Feb 07:08:17 07:12:06 53° 306° (NW) 07:16:00 437.485
XW-2C 23 Feb 07:11:53 07:14:30 18° 293° (WNW) 07:17:05 145.795 - 145.815
SO-50 23 Feb 07:13:23 07:17:54 74° 54° (NE) 07:22:22 436.795
LilacSat-2 23 Feb 07:26:53 07:28:29 12° 296° (WNW) 07:30:06 437.200
NUDT-PHONESAT 23 Feb 07:33:44 07:35:19 12° 296° (WNW) 07:36:54 437.300
UWE-3 23 Feb 07:34:31 07:38:22 25° 94° (E) 07:42:09 435.000/436.395/437.385
PRISM 23 Feb 07:34:36 07:37:37 20° 66° (ENE) 07:40:37 437.425
Tancredo 1 23 Feb 07:38:28 07:40:41 17° 132° (SE) 07:42:54 437.200
BEESAT 2 23 Feb 07:40:51 07:44:45 58° 306° (NW) 07:48:43 435.950
XW-2A 23 Feb 07:51:19 07:54:25 30° 289° (WNW) 07:57:28 145.665 - 145.685
STRAND 1 23 Feb 07:55:12 07:57:54 14° 270° (W) 08:00:35 437.568
AAUSAT CUBESAT 2 23 Feb 07:58:30 08:02:30 49° 99° (E) 08:06:29 437.432
HO-68 23 Feb 08:00:58 08:08:09 79° 289° (WNW) 08:15:17 435.675
ZACube-1 23 Feb 08:01:13 08:05:08 27° 95° (E) 08:08:59 437.345
SEEDS 23 Feb 08:01:42 08:05:53 72° 283° (WNW) 08:10:00 437.485
O/OREOS (USA 219) 23 Feb 08:04:44 08:08:57 35° 61° (ENE) 08:13:10 437.305
FO-29 23 Feb 08:10:51 08:15:59 21° 55° (NE) 08:21:21 435.910
CUBEBUG 2 23 Feb 08:27:36 08:32:18 61° 286° (WNW) 08:36:58 437.445
UNISAT 6 23 Feb 08:33:52 08:37:58 36° 70° (ENE) 08:42:10 437.425
TIGRISAT 23 Feb 08:35:00 08:39:03 34° 69° (ENE) 08:43:12 435.000
CUTE 1.7 + AOD 2 23 Feb 08:36:04 08:39:16 21° 293° (WNW) 08:42:28 437.475
ISS 23 Feb 08:41:52 08:45:08 69° 143° (SE) 08:48:26 437.550
AO-73 23 Feb 08:50:43 08:55:19 84° 105° (ESE) 08:59:48 145.935
SO-50 23 Feb 08:56:00 08:57:44 12° 252° (WSW) 08:59:27 436.795
Oscar 11 23 Feb 09:00:39 09:05:01 87° 284° (WNW) 09:09:20 .
PRISM 23 Feb 09:08:58 09:12:41 33° 262° (W) 09:16:24 437.425
UWE-3 23 Feb 09:10:36 09:14:51 35° 290° (WNW) 09:19:02 435.000/436.395/437.385
Tancredo 1 23 Feb 09:13:27 09:16:40 58° 329° (NNW) 09:19:54 437.200
YUBILEINY 23 Feb 09:25:43 09:33:25 35° 85° (E) 09:41:05 435.215
AAUSAT CUBESAT 2 23 Feb 09:35:17 09:37:33 15° 296° (WNW) 09:39:49 437.432
ZACube-1 23 Feb 09:37:23 09:41:22 30° 291° (WNW) 09:45:17 437.345
O/OREOS (USA 219) 23 Feb 09:44:30 09:48:09 24° 258° (WSW) 09:51:48 437.305
HO-68 23 Feb 09:50:36 09:54:45 17° 308° (NW) 09:58:54 435.675
DELFI C3 23 Feb 09:52:51 09:56:46 66° 285° (WNW) 10:00:38 145.870
FO-29 23 Feb 09:52:53 09:59:54 88° 257° (WSW) 10:07:40 435.910
DUCHIFAT 1 23 Feb 09:56:12 09:59:19 21° 66° (ENE) 10:02:27 145.980
EO-79 23 Feb 10:03:34 10:07:12 29° 69° (ENE) 10:10:52 145.935-145.965
AIST 2D 23 Feb 10:03:41 10:07:03 41° 73° (ENE) 10:10:26 435.315
UNISAT 6 23 Feb 10:11:16 10:14:46 22° 267° (W) 10:18:21 437.425
TIGRISAT 23 Feb 10:12:14 10:15:48 23° 267° (W) 10:19:27 435.000
ISS 23 Feb 10:19:06 10:21:51 24° 341° (NNW) 10:24:38 437.550
POLYITAN 1 23 Feb 10:19:52 10:23:53 43° 72° (ENE) 10:27:56 437.675
NANOSAT C BR1 23 Feb 10:21:42 10:25:39 41° 71° (ENE) 10:29:39 145.865
QB50P2 23 Feb 10:22:39 10:26:43 50° 73° (ENE) 10:30:51 145.880/145.840
AO-73 23 Feb 10:29:34 10:30:49 11° 300° (WNW) 10:32:04 145.935
ESTCUBE 1 23 Feb 10:37:36 10:41:16 24° 95° (E) 10:44:54 437.505/2401.250
Tancredo 1 23 Feb 10:51:07 10:53:28 18° 348° (NNW) 10:55:50 437.200
BUGSAT 1 23 Feb 11:02:09 11:05:51 36° 71° (ENE) 11:09:36 437.445
VELOX 1 23 Feb 11:13:29 11:16:40 19° 93° (E) 11:19:51 145.980
YUBILEINY 23 Feb 11:21:19 11:29:51 52° 284° (WNW) 11:38:25 435.215
DUCHIFAT 1 23 Feb 11:30:54 11:34:45 35° 263° (W) 11:38:39 145.980
SPROUT 23 Feb 11:38:32 11:42:18 29° 96° (E) 11:46:03 437.525
AIST 2D 23 Feb 11:39:08 11:40:30 12° 269° (W) 11:41:52 435.315
EO-79 23 Feb 11:39:28 11:42:56 24° 265° (W) 11:46:26 145.935-145.965
FO-29 23 Feb 11:41:45 11:46:02 17° 276° (W) 11:50:32 435.910
Oscar 19 23 Feb 11:52:03 11:56:49 40° 69° (ENE) 12:01:37 437.125/150
ISS 23 Feb 11:57:03 11:59:10 16° 1° (N) 12:01:17 437.550
POLYITAN 1 23 Feb 11:57:12 11:59:53 16° 268° (W) 12:02:35 437.675
50 SAT 23 Feb 11:57:15 12:00:29 36° 98° (E) 12:03:43 437.505
NANOSAT C BR1 23 Feb 11:58:48 12:01:33 17° 268° (W) 12:04:19 145.865
QB50P2 23 Feb 12:00:32 12:02:49 14° 269° (W) 12:05:06 145.880/145.840
AO-7 23 Feb 12:05:40 12:09:34 14° 44° (NE) 12:13:30 .
ESTCUBE 1 23 Feb 12:14:06 12:18:04 32° 291° (WNW) 12:22:03 437.505/2401.250
Gurwin Techsat 1B 23 Feb 12:18:37 12:23:31 40° 69° (ENE) 12:28:28 435.225
Tancredo 1 23 Feb 12:28:28 12:30:40 17° 8° (N) 12:32:51 437.200
BUGSAT 1 23 Feb 12:38:32 12:41:20 18° 267° (W) 12:44:11 437.445
DX 1 23 Feb 12:47:57 12:52:19 89° 104° (ESE) 12:56:41 434.975-435.025
VELOX 1 23 Feb 12:49:09 12:53:16 40° 289° (WNW) 12:57:23 145.980
AO-85 23 Feb 12:56:11 12:59:58 46° 53° (NE) 13:03:47 145.980
UKube-1 23 Feb 13:04:38 13:08:58 84° 284° (WNW) 13:13:17 .
SPROUT 23 Feb 13:14:33 13:18:06 26° 292° (WNW) 13:21:39 437.525
50 SAT 23 Feb 13:31:33 13:33:18 13° 295° (WNW) 13:35:03 437.505
Oscar 19 23 Feb 13:32:02 13:36:15 25° 266° (W) 13:40:29 437.125/150
ISS 23 Feb 13:33:32 13:36:25 27° 21° (NNE) 13:39:18 437.550
BEESAT 3 23 Feb 13:48:18 13:50:23 14° 39° (NE) 13:52:27 437.485
ITUPSAT 1 23 Feb 13:51:28 13:55:07 21° 94° (E) 13:58:44 437.325
AO-7 23 Feb 13:52:29 14:00:36 58° 65° (ENE) 14:08:44 .
Gurwin Techsat 1B 23 Feb 13:59:09 14:03:34 27° 265° (W) 14:08:01 435.225
BEESAT 23 Feb 13:59:19 14:03:18 26° 95° (E) 14:07:16 436.000
ITAMSAT 1 23 Feb 13:59:35 14:04:43 64° 72° (ENE) 14:09:54 435.822/435.867
Tancredo 1 23 Feb 14:04:28 14:07:35 43° 28° (NNE) 14:10:40 437.200
BEESAT 2 23 Feb 14:21:44 14:23:43 13° 39° (NE) 14:25:41 435.950
AO-85 23 Feb 14:37:41 14:39:58 15° 249° (WSW) 14:42:17 145.980
MOZHAYETS 4 23 Feb 14:39:34 14:43:19 24° 94° (E) 14:47:03
ISS 23 Feb 15:09:50 15:13:02 50° 219° (SW) 15:16:13 437.550
BEESAT 3 23 Feb 15:24:30 15:28:32 82° 238° (WSW) 15:32:31 437.485
KKS-1 23 Feb 15:26:27 15:29:37 19° 93° (E) 15:32:47 437.445
ITUPSAT 1 23 Feb 15:28:35 15:33:07 42° 290° (WNW) 15:37:36 437.325
CUBESAT XI-V 23 Feb 15:34:06 15:36:35 14° 90° (E) 15:39:04 437.345
BEESAT 23 Feb 15:36:47 15:41:07 35° 292° (WNW) 15:45:25 436.000
Tancredo 1 23 Feb 15:41:04 15:43:42 24° 225° (SW) 15:46:20 437.200
ITAMSAT 1 23 Feb 15:41:30 15:44:37 16° 269° (W) 15:47:46 435.822/435.867
AO-7 23 Feb 15:46:23 15:53:41 33° 263° (W) 16:01:03 .
PCSat 23 Feb 15:56:42 16:01:47 44° 113° (ESE) 16:06:56 145.827
BEESAT 2 23 Feb 15:58:00 16:02:04 87° 237° (WSW) 16:06:06 435.950
RS-15 23 Feb 16:03:13 16:12:58 31° 103° (ESE) 16:22:58 29.354- 29.394
XW-2F 23 Feb 16:03:48 16:05:22 12° 64° (ENE) 16:06:55 145.980 - 146.000
STARS 23 Feb 16:06:11 16:09:40 22° 94° (E) 16:13:07 437.465
XW-2D 23 Feb 16:06:38 16:08:39 14° 65° (ENE) 16:10:41 145.860 - 145.880
XW-2B 23 Feb 16:11:21 16:13:37 15° 65° (ENE) 16:15:53 145.730 - 145.750
MOZHAYETS 4 23 Feb 16:16:22 16:20:31 34° 291° (WNW) 16:24:39
XW-2C 23 Feb 16:19:21 16:22:05 19° 67° (ENE) 16:24:50 145.795 - 145.815
DOVE 4 23 Feb 16:29:51 16:33:22 28° 69° (ENE) 16:36:56 437.250
CUTE-I 23 Feb 16:32:17 16:37:01 33° 67° (ENE) 16:41:47 437.470
LilacSat-2 23 Feb 16:33:16 16:36:36 28° 70° (ENE) 16:39:57 437.200
NUDT-PHONESAT 23 Feb 16:38:18 16:41:23 24° 69° (ENE) 16:44:30 437.300
HO-68 23 Feb 16:45:35 16:49:53 17° 53° (NE) 16:54:11 435.675
KKS-1 23 Feb 17:02:08 17:06:21 42° 289° (WNW) 17:10:34 437.445
CUBESAT XI-V 23 Feb 17:09:49 17:14:20 57° 286° (WNW) 17:18:49 437.345
M-CUBED/EXP-1 PRIME 23 Feb 17:14:35 17:18:16 56° 106° (ESE) 17:22:14 437.505
KAITUO 1B 23 Feb 17:33:54 17:37:40 67° 259° (W) 17:41:29 145.475/437.950
XW-2F 23 Feb 17:35:17 17:39:03 53° 260° (W) 17:42:50 145.980 - 146.000
XW-2D 23 Feb 17:38:46 17:42:27 45° 261° (W) 17:46:12 145.860 - 145.880
PCSat 23 Feb 17:40:36 17:45:20 30° 311° (NW) 17:50:05 145.827
STARS 23 Feb 17:42:03 17:46:04 35° 290° (WNW) 17:50:05 437.465
XW-2B 23 Feb 17:43:50 17:47:28 41° 262° (W) 17:51:09 145.730 - 145.750
CUBEBUG 2 23 Feb 17:52:03 17:54:04 13° 61° (ENE) 17:56:07 437.445
XW-2C 23 Feb 17:52:36 17:56:04 32° 264° (W) 17:59:34 145.795 - 145.815
CUTE 1.7 + AOD 2 23 Feb 17:52:54 17:56:29 26° 68° (ENE) 18:00:03 437.475
DOVE 4 23 Feb 18:07:46 18:11:06 23° 266° (W) 18:14:26 437.250
LilacSat-2 23 Feb 18:07:53 18:10:52 21° 266° (W) 18:13:53 437.200
RS-15 23 Feb 18:12:13 18:24:13 79° 305° (NW) 18:36:41 29.354- 29.394
NUDT-PHONESAT 23 Feb 18:12:15 18:15:15 23° 265° (W) 18:18:18 437.300
CUTE-I 23 Feb 18:12:17 18:17:02 32° 264° (W) 18:21:48 437.470
XW-2A 23 Feb 18:22:31 18:25:54 89° 77° (ENE) 18:29:21 145.665 - 145.685
STRAND 1 23 Feb 18:23:48 18:27:51 23° 94° (E) 18:31:52 437.568
HO-68 23 Feb 18:29:22 18:36:32 81° 72° (ENE) 18:43:44 435.675
UWE-3 23 Feb 18:32:09 18:35:29 21° 66° (ENE) 18:38:55 435.000/436.395/437.385
AAUSAT CUBESAT 2 23 Feb 18:48:54 18:52:40 34° 71° (ENE) 18:56:27 437.432
M-CUBED/EXP-1 PRIME 23 Feb 18:50:47 18:52:24 12° 300° (WNW) 18:54:03 437.505
SEEDS 23 Feb 18:53:13 18:57:27 80° 75° (ENE) 19:01:42 437.485
ZACube-1 23 Feb 18:57:30 19:01:00 23° 67° (ENE) 19:04:35 437.345
CUBEBUG 2 23 Feb 19:25:40 19:30:03 69° 259° (W) 19:34:37 437.445
CUTE 1.7 + AOD 2 23 Feb 19:28:32 19:32:13 28° 265° (W) 19:35:55 437.475
YUBILEINY 23 Feb 19:35:34 19:41:00 17° 59° (ENE) 19:46:22 435.215
AO-73 23 Feb 19:46:02 19:50:26 67° 74° (ENE) 19:54:57 145.935
Oscar 11 23 Feb 19:55:21 19:59:42 75° 75° (ENE) 20:04:04 .
STRAND 1 23 Feb 20:02:19 20:07:13 44° 290° (WNW) 20:12:04 437.568
UWE-3 23 Feb 20:07:31 20:11:39 39° 263° (W) 20:15:56 435.000/436.395/437.385
HO-68 23 Feb 20:20:16 20:25:00 19° 270° (W) 20:29:46 435.675
AAUSAT CUBESAT 2 23 Feb 20:25:10 20:28:13 20° 267° (W) 20:31:16 437.432
RS-15 23 Feb 20:28:30 20:39:04 32° 334° (NNW) 20:49:51 29.354- 29.394
ZACube-1 23 Feb 20:33:01 20:37:04 35° 264° (W) 20:41:14 437.345
DELFI C3 23 Feb 20:38:18 20:42:14 71° 75° (ENE) 20:46:11 145.870
PRISM 23 Feb 20:49:34 20:53:06 28° 97° (E) 20:56:39 437.425
FO-29 23 Feb 21:04:41 21:08:57 16° 84° (E) 21:13:01 435.910
AO-73 23 Feb 21:25:32 21:27:08 12° 272° (W) 21:28:46 145.935
SO-50 23 Feb 21:28:50 21:32:22 21° 112° (ESE) 21:35:52 436.795
YUBILEINY 23 Feb 21:30:31 21:39:19 82° 82° (E) 21:48:01 435.215
ESTCUBE 1 23 Feb 21:37:36 21:41:15 25° 67° (ENE) 21:44:54 437.505/2401.250
UNISAT 6 23 Feb 22:01:00 22:05:44 76° 102° (ESE) 22:10:23 437.425
TIGRISAT 23 Feb 22:01:53 22:06:36 72° 101° (E) 22:11:15 435.000
VELOX 1 23 Feb 22:11:29 22:14:33 19° 65° (ENE) 22:17:39 145.980
O/OREOS (USA 219) 23 Feb 22:17:35 22:21:39 36° 105° (ESE) 22:25:45 437.305
PRISM 23 Feb 22:25:02 22:28:16 23° 293° (WNW) 22:31:31 437.425
50 SAT 23 Feb 22:32:35 22:34:54 17° 67° (ENE) 22:37:13 437.505
